Showing default

GONETS D1 8, 27059

Orbit data source: Space-Track

GONETS D1 8, 27059 is a payload satellite owned by Gonets (CIS) in LEO that was launched on Fri, 28 Dec 2001 UTC via a TSIKLON-3 launch vehicle from the Plesetsk Missile And Space Complex (PKMTR). Payload-class satellites include a variety of spacecraft equipped with specific instruments for various scientific and technological missions. These include communications satellites like Starlink; space stations such as the ISS; scientific satellites like the Hubble; Earth observation satellites from companies like Planet Labs, Umbra, and HawkEye 360; GPS; miniature CubeSats for education and research; and military/defense satellites.

Loading next visibility...
Identifier
27059, 2001-058E
Orbit
LEO
Country
Flag of CISCIS
Related business
Manufacturer
NPO PM
Mission
Non-operational Civil Communications
Bus & Motor
STRELA-3, Unknown motor
Mass
225 kg wet, 225 kg dry
Launch date (UTC)
2001-12-28 (24 years ago)
Launch vehicle
TSIKLON-3
Launch site
Plesetsk Missile And Space Complex (PKMTR)
Object type
Payload
Rocket body
Debris
Shape & HBR
Cyl + 1 Ant, 3.5 m
Radar Cross Section
1.798 m², Medium (>0.1 m² and < 1m²)

Expand to show TLE details & history
Last TLE update: 3 hours ago

TLE from 3 hours ago
0 GONETS D1 8
1 27059U 01058E   25355.54124744 -.00000048  00000-0 -32807-3 0  9995
2 27059  82.5418 326.5155 0001277 326.4465  33.6544 12.61551215104174
Epoch: 2025-12-21T12:59Z
TLE epoch observation values (Epoch: 2025-12-21T12:59:23.778Z)
Latitude
-0.00009°
Longitude
41.3142°
Altitude
1,418.447 km
Speed
7.152 km/s
True Right ascension
21h 46m 03s
True Declination
0° 00' 00"
Sunlit
Object was in daylight at epoch
Visualization orbit readout
Latitude
Unknown
Longitude
Unknown
Altitude
Unknown
Speed
Unknown
Apparent Right ascension
Unknown
Apparent Declination
Unknown
Sunlit
N/A
Visualization observer readout
Local Sidereal Time
14:55:37
Azimuth
Unknown
Elevation
Unknown
Doppler factor
Unknown
Orbital elements
Apogee altitude
1,414.866 km
Perigee altitude
1,412.876 km
Semi-major axis
7,792.008 km
Eccentricity
0.00013
Inclination
82.5418°
RAAN
326.5155°
Arg. of periapsis
326.4465°
True anomaly
33.66251°
Mean anomaly
33.6544°
Eccentric anomaly
33.65846°
Mean motion
3.15551 °/min
Orbital period
114.09 mins
BSTAR
-0.00032807
Loading maneuver chart data...
Computing Atmospheric mass density...
Loading historical data...
Loading historical data...
Loading historical data...
Loading historical data...
Loading historical data...
Loading historical data...
Loading historical data...

Documentation

Showing up to 5 results
|